Tracking 19969 objects as of 12-Nov-2019
Live streaming from Space Station
objects crossing your sky now
Track the group of recently launched Starlink satellites

NOAA 16 DEB

Track NOAA 16 DEB now!
10-day predictions


NORAD ID: 41366
Int'l Code: 2000-055JK
Perigee: 849.2 km
Apogee: 917.0 km
Inclination: 99.0 °
Period: 102.5 minutes
Semi major axis: 7254 km
RCS: Unknown
Launch date: September 21, 2000
Source: United States (US)
Launch site: AIR FORCE WESTERN TEST RANGE (AFWTR)

Note: This is SATELLITE DEBRIS
aabbcc
Your satellite tracking list
Your tracking list is empty




NASA's NSSDC Master Catalog

Two Line Element Set (TLE):
1 41366U 00055JK  19315.42943163 +.00001009 +00000-0 +64584-3 0  9991
2 41366 098.9780 024.9172 0046712 243.2581 116.3802 14.05172568192971
Source of the keplerian elements: AFSPC